FIN4XD ESSA-EFHK

Flight info

Callsign FIN4XD
Flight time 0h 44m
Altitude 33000
Route TOVRI N851 RIKUM DCT RIRIP Y364 LAKUT
Aircraft A320/M-SDE1E2E3FGIM1RWXYZ/LB1

Departure

Time 2026-04-26 15:37
Airport Stockholm-Arlanda Airport (ESSA)

Arrival

Time 2026-04-26 16:21
Airport Helsinki Vantaa Airport (EFHK)
Time Latitude Longitude Altitude Speed Heading
2026-04-26 15:18 59.64395 17.92747 138 ft 0 kts 45°
2026-04-26 15:28 59.64386 17.92729 138 ft 3 kts 45°
2026-04-26 15:29 59.64372 17.92701 138 ft 2 kts 45°
2026-04-26 15:29 59.64356 17.92669 138 ft 3 kts 47°
2026-04-26 15:29 59.64329 17.92611 138 ft 1 kts 46°
2026-04-26 15:32 59.64333 17.92616 138 ft 4 kts 37°
2026-04-26 15:32 59.64294 17.92546 138 ft 14 kts 213°
2026-04-26 15:32 59.64234 17.92434 138 ft 11 kts 259°
2026-04-26 15:33 59.64249 17.92310 138 ft 10 kts 297°
2026-04-26 15:33 59.64284 17.92173 138 ft 12 kts 296°
2026-04-26 15:33 59.64326 17.92013 138 ft 9 kts 298°
2026-04-26 15:33 59.64310 17.91904 138 ft 9 kts 208°
2026-04-26 15:34 59.64251 17.91876 138 ft 8 kts 191°
2026-04-26 15:34 59.64199 17.91856 138 ft 7 kts 190°
2026-04-26 15:34 59.64128 17.91831 138 ft 14 kts 190°
2026-04-26 15:34 59.64015 17.91790 138 ft 18 kts 191°
2026-04-26 15:35 59.63898 17.91744 138 ft 17 kts 191°
2026-04-26 15:35 59.63803 17.91640 138 ft 15 kts 219°
2026-04-26 15:35 59.63732 17.91511 140 ft 13 kts 238°
2026-04-26 15:35 59.63737 17.91397 146 ft 6 kts 302°
2026-04-26 15:36 59.63763 17.91353 146 ft 9 kts 330°
2026-04-26 15:36 59.63838 17.91354 145 ft 14 kts 12°
2026-04-26 15:36 59.64044 17.91428 143 ft 61 kts 11°
2026-04-26 15:36 59.64684 17.91663 146 ft 124 kts 10°
2026-04-26 15:37 59.65654 17.92037 541 ft 142 kts
2026-04-26 15:37 59.66603 17.92426 1381 ft 138 kts
2026-04-26 15:37 59.67608 17.92810 1943 ft 156 kts
2026-04-26 15:37 59.68732 17.93229 2456 ft 173 kts
2026-04-26 15:38 59.69988 17.93679 2971 ft 190 kts
2026-04-26 15:38 59.71286 17.94126 3912 ft 190 kts
2026-04-26 15:38 59.72600 17.94592 4795 ft 194 kts
2026-04-26 15:38 59.73937 17.95072 5655 ft 199 kts
2026-04-26 15:39 59.75259 17.96365 6131 ft 232 kts 39°
2026-04-26 15:39 59.76081 17.99361 6604 ft 268 kts 75°
2026-04-26 15:39 59.76188 18.03156 7407 ft 282 kts 88°
2026-04-26 15:39 59.76088 18.05756 8014 ft 287 kts 92°
2026-04-26 15:40 59.75726 18.11069 9275 ft 294 kts 95°
2026-04-26 15:40 59.75439 18.15071 10168 ft 298 kts 92°
2026-04-26 15:40 59.75313 18.19336 10675 ft 317 kts 88°
2026-04-26 15:40 59.75250 18.23788 11100 ft 335 kts 86°
2026-04-26 15:41 59.75220 18.28459 11860 ft 341 kts 85°
2026-04-26 15:41 59.75203 18.33203 12693 ft 346 kts 84°
2026-04-26 15:41 59.75190 18.38000 13531 ft 350 kts 84°
2026-04-26 15:41 59.75175 18.42864 14313 ft 355 kts 83°
2026-04-26 15:42 59.75157 18.47780 15012 ft 360 kts 83°
2026-04-26 15:42 59.75135 18.52793 15698 ft 365 kts 83°
2026-04-26 15:42 59.75107 18.57922 16383 ft 370 kts 82°
2026-04-26 15:42 59.75077 18.63064 17075 ft 375 kts 82°
2026-04-26 15:43 59.75053 18.68194 17747 ft 378 kts 79°
2026-04-26 15:43 59.75318 18.73336 18402 ft 372 kts 69°
2026-04-26 15:43 59.77108 18.82707 19608 ft 357 kts 48°
2026-04-26 15:44 59.78486 18.86763 20231 ft 355 kts 44°
2026-04-26 15:44 59.81338 18.94898 21492 ft 362 kts 44°
2026-04-26 15:44 59.82773 18.99032 22111 ft 365 kts 44°
2026-04-26 15:45 59.85675 19.07442 23348 ft 372 kts 44°
2026-04-26 15:45 59.87143 19.11711 23880 ft 375 kts 44°
2026-04-26 15:46 59.90111 19.20352 24844 ft 381 kts 44°
2026-04-26 15:46 59.91618 19.24740 25307 ft 384 kts 44°
2026-04-26 15:46 59.93126 19.29152 25764 ft 386 kts 44°
2026-04-26 15:46 59.94128 19.32090 26061 ft 388 kts 44°
2026-04-26 15:47 59.96135 19.38146 26640 ft 398 kts 49°
2026-04-26 15:47 59.98115 19.48915 27471 ft 428 kts 64°
2026-04-26 15:47 59.98816 19.54696 27875 ft 430 kts 64°
2026-04-26 15:48 59.99521 19.60531 28278 ft 433 kts 64°
2026-04-26 15:48 60.00230 19.66416 28670 ft 436 kts 64°
2026-04-26 15:48 60.00939 19.72333 29055 ft 439 kts 64°
2026-04-26 15:48 60.01640 19.78207 29432 ft 442 kts 64°
2026-04-26 15:49 60.02353 19.84207 29794 ft 444 kts 64°
2026-04-26 15:49 60.03070 19.90245 30146 ft 447 kts 64°
2026-04-26 15:49 60.03790 19.96308 30446 ft 449 kts 65°
2026-04-26 15:49 60.04512 20.02408 30740 ft 452 kts 65°
2026-04-26 15:50 60.05234 20.08546 31024 ft 454 kts 65°
2026-04-26 15:50 60.05955 20.14717 31300 ft 456 kts 65°
2026-04-26 15:50 60.06677 20.20909 31570 ft 458 kts 66°
2026-04-26 15:50 60.07401 20.27142 31860 ft 459 kts 66°
2026-04-26 15:51 60.08121 20.33367 32236 ft 458 kts 66°
2026-04-26 15:51 60.08830 20.39568 32614 ft 458 kts 66°
2026-04-26 15:51 60.09532 20.45724 32941 ft 458 kts 67°
2026-04-26 15:52 60.10911 20.57963 33018 ft 440 kts 67°
2026-04-26 15:52 60.12244 20.69833 33009 ft 434 kts 66°
2026-04-26 15:53 60.13574 20.81654 33006 ft 434 kts 66°
2026-04-26 15:53 60.14891 20.93477 33003 ft 435 kts 67°
2026-04-26 15:54 60.16196 21.05353 33002 ft 435 kts 67°
2026-04-26 15:54 60.17482 21.17223 32999 ft 435 kts 67°
2026-04-26 15:55 60.18758 21.29095 32995 ft 435 kts 68°
2026-04-26 15:55 60.20027 21.41008 32989 ft 435 kts 68°
2026-04-26 15:56 60.21288 21.52932 32981 ft 436 kts 68°
2026-04-26 15:56 60.22547 21.64865 32977 ft 436 kts 68°
2026-04-26 15:57 60.23783 21.76712 32973 ft 436 kts 68°
2026-04-26 15:57 60.25019 21.88677 32968 ft 436 kts 69°
2026-04-26 15:58 60.25329 21.91705 32977 ft 436 kts 69°
2026-04-26 15:58 60.26536 22.03683 32842 ft 438 kts 69°
2026-04-26 15:58 60.27145 22.09690 32573 ft 436 kts 69°
2026-04-26 15:59 60.27747 22.15653 32317 ft 433 kts 69°
2026-04-26 15:59 60.28339 22.21559 31868 ft 429 kts 68°
2026-04-26 15:59 60.28927 22.27455 31312 ft 427 kts 68°
2026-04-26 15:59 60.29510 22.33320 30780 ft 424 kts 68°
2026-04-26 16:00 60.30085 22.39139 30250 ft 422 kts 68°
2026-04-26 16:00 60.30654 22.44915 29680 ft 419 kts 67°
2026-04-26 16:00 60.31213 22.50631 29138 ft 414 kts 68°
2026-04-26 16:00 60.31761 22.56297 28657 ft 409 kts 68°
2026-04-26 16:01 60.32300 22.61908 28165 ft 404 kts 68°
2026-04-26 16:01 60.32828 22.67415 27712 ft 399 kts 68°
2026-04-26 16:01 60.33354 22.72886 27255 ft 394 kts 68°
2026-04-26 16:01 60.33871 22.78281 26818 ft 390 kts 68°
2026-04-26 16:02 60.34379 22.83616 26388 ft 386 kts 68°
2026-04-26 16:02 60.34882 22.88923 25954 ft 382 kts 68°
2026-04-26 16:02 60.35377 22.94165 25512 ft 378 kts 68°
2026-04-26 16:02 60.35700 22.97613 25227 ft 376 kts 69°
2026-04-26 16:03 60.36346 23.04512 24622 ft 373 kts 69°
2026-04-26 16:03 60.36821 23.09601 24176 ft 370 kts 69°
2026-04-26 16:03 60.37300 23.14773 23702 ft 369 kts 69°
2026-04-26 16:03 60.37768 23.19843 23182 ft 367 kts 70°
2026-04-26 16:04 60.38200 23.24901 22632 ft 367 kts 75°
2026-04-26 16:04 60.38107 23.30202 21648 ft 387 kts 95°
2026-04-26 16:04 60.37401 23.35503 20580 ft 390 kts 99°
2026-04-26 16:04 60.36631 23.40737 19735 ft 385 kts 101°
2026-04-26 16:05 60.35852 23.45873 18929 ft 378 kts 101°
2026-04-26 16:05 60.35082 23.50904 18197 ft 370 kts 102°
2026-04-26 16:05 60.34337 23.55764 17708 ft 354 kts 101°
2026-04-26 16:05 60.33627 23.60418 17283 ft 338 kts 101°
2026-04-26 16:06 60.32952 23.64902 16862 ft 333 kts 101°
2026-04-26 16:06 60.32289 23.69362 16447 ft 331 kts 100°
2026-04-26 16:06 60.31631 23.73808 16027 ft 330 kts 101°
2026-04-26 16:06 60.30971 23.78241 15626 ft 329 kts 101°
2026-04-26 16:07 60.30312 23.82658 15213 ft 329 kts 101°
2026-04-26 16:07 60.29645 23.87093 14799 ft 328 kts 101°
2026-04-26 16:07 60.28973 23.91538 14384 ft 327 kts 101°
2026-04-26 16:07 60.28306 23.95934 13976 ft 327 kts 101°
2026-04-26 16:08 60.27641 24.00304 13552 ft 326 kts 101°
2026-04-26 16:08 60.27200 24.03198 13254 ft 325 kts 101°
2026-04-26 16:08 60.26315 24.08987 12707 ft 323 kts 102°
2026-04-26 16:08 60.25650 24.13310 12310 ft 320 kts 102°
2026-04-26 16:09 60.24999 24.17521 12104 ft 309 kts 102°
2026-04-26 16:09 60.24361 24.21615 11498 ft 304 kts 102°
2026-04-26 16:09 60.23739 24.25601 11080 ft 292 kts 102°
2026-04-26 16:09 60.23141 24.29433 10698 ft 283 kts 102°
2026-04-26 16:10 60.22561 24.33159 10331 ft 279 kts 102°
2026-04-26 16:10 60.22027 24.36612 9976 ft 281 kts 102°
2026-04-26 16:10 60.21445 24.40376 9566 ft 282 kts 102°
2026-04-26 16:10 60.20860 24.44139 9140 ft 282 kts 102°
2026-04-26 16:11 60.20272 24.47912 8742 ft 282 kts 102°
2026-04-26 16:11 60.19685 24.51666 8334 ft 282 kts 102°
2026-04-26 16:11 60.19101 24.55377 7925 ft 281 kts 102°
2026-04-26 16:11 60.18500 24.59181 7501 ft 281 kts 102°
2026-04-26 16:12 60.18108 24.61655 7157 ft 283 kts 102°
2026-04-26 16:12 60.17512 24.65424 6764 ft 282 kts 102°
2026-04-26 16:12 60.16319 24.72940 5865 ft 283 kts 102°
2026-04-26 16:13 60.15524 24.77922 5242 ft 281 kts 102°
2026-04-26 16:13 60.15131 24.80363 5045 ft 271 kts 103°
2026-04-26 16:13 60.14553 24.83914 4675 ft 258 kts 102°
2026-04-26 16:13 60.14007 24.87278 4272 ft 249 kts 102°
2026-04-26 16:14 60.13485 24.90522 4113 ft 243 kts 102°
2026-04-26 16:14 60.12978 24.93676 4054 ft 234 kts 102°
2026-04-26 16:14 60.12594 24.99721 3852 ft 211 kts 73°
2026-04-26 16:15 60.12991 25.02483 3576 ft 200 kts 58°
2026-04-26 16:15 60.13596 25.04896 3247 ft 187 kts 55°
2026-04-26 16:15 60.14175 25.07192 2973 ft 183 kts 55°
2026-04-26 16:16 60.15485 25.11317 2455 ft 166 kts 30°
2026-04-26 16:16 60.16507 25.12216 2231 ft 158 kts
2026-04-26 16:16 60.17585 25.12110 2188 ft 157 kts 344°
2026-04-26 16:16 60.18579 25.11201 2129 ft 156 kts 335°
2026-04-26 16:17 60.19549 25.10215 2070 ft 156 kts 335°
2026-04-26 16:17 60.20485 25.09263 1992 ft 144 kts 335°
2026-04-26 16:17 60.21356 25.08375 1926 ft 138 kts 335°
2026-04-26 16:17 60.22204 25.07514 1880 ft 136 kts 335°
2026-04-26 16:18 60.23046 25.06660 1821 ft 135 kts 335°
2026-04-26 16:18 60.24702 25.04967 1492 ft 125 kts 335°
2026-04-26 16:19 60.26216 25.03421 1122 ft 120 kts 334°
2026-04-26 16:19 60.26955 25.02664 964 ft 119 kts 333°
2026-04-26 16:19 60.28440 25.01169 695 ft 120 kts 331°
2026-04-26 16:20 60.29179 25.00407 519 ft 119 kts 332°
2026-04-26 16:20 60.30656 24.98884 206 ft 118 kts 332°
2026-04-26 16:20 60.31343 24.98177 157 ft 98 kts 333°
2026-04-26 16:21 60.31860 24.97648 153 ft 71 kts 333°
2026-04-26 16:21 60.32227 24.97273 158 ft 39 kts 332°
2026-04-26 16:21 60.32355 24.97141 161 ft 14 kts 333°
2026-04-26 16:21 60.32383 24.96986 163 ft 13 kts 249°
2026-04-26 16:22 60.32356 24.96901 164 ft 2 kts 227°
2026-04-26 16:22 60.32350 24.96887 164 ft 0 kts 228°
2026-04-26 16:22 60.32341 24.96866 165 ft 7 kts 228°
2026-04-26 16:22 60.32295 24.96766 165 ft 10 kts 227°
2026-04-26 16:23 60.32242 24.96740 165 ft 9 kts 153°
2026-04-26 16:23 60.32182 24.96808 165 ft 10 kts 150°
2026-04-26 16:23 60.32115 24.96887 164 ft 12 kts 150°
2026-04-26 16:23 60.32047 24.96964 163 ft 11 kts 150°
2026-04-26 16:24 60.31984 24.97032 163 ft 10 kts 152°
2026-04-26 16:24 60.31922 24.97097 163 ft 10 kts 152°
2026-04-26 16:24 60.31873 24.97147 163 ft 6 kts 154°
2026-04-26 16:24 60.31853 24.97148 163 ft 2 kts 210°
2026-04-26 16:25 60.31845 24.97123 163 ft 2 kts 243°
2026-04-26 16:25 60.31839 24.97101 163 ft 2 kts 240°
2026-04-26 16:25 60.31831 24.97071 163 ft 1 kts 241°
2026-04-26 16:25 60.31830 24.97067 163 ft 1 kts 245°
2026-04-26 16:26 60.31824 24.97045 136 ft 1 kts 243°
2026-04-26 16:26 60.31824 24.97041 136 ft 0 kts 243°